UTA7775 USRO-ULLI

Flight info

Callsign UTA7775
Flight time 3h 29m
Altitude 34000
Route DINOL2G DINOL DCT OGROM/K0839F360 T756 ODNUS L870 ADLIN T242 AMDEN P979 BEPOL BEPOL1B
Aircraft B738/M-SDE2E3FGHIRWXY/LB1

Departure

Time 2026-04-20 16:07
Airport Noyabrsk Airport (USRO)

Arrival

Time 2026-04-20 19:36
Airport Pulkovo Airport (ULLI)
Time Latitude Longitude Altitude Speed Heading
2026-04-20 15:43 63.18316 75.27308 455 ft 0 kts 204°
2026-04-20 16:00 63.18308 75.27300 455 ft 5 kts 204°
2026-04-20 16:01 63.18281 75.27212 455 ft 8 kts 272°
2026-04-20 16:01 63.18300 75.27113 454 ft 6 kts 295°
2026-04-20 16:01 63.18315 75.27041 456 ft 4 kts 295°
2026-04-20 16:01 63.18325 75.26995 456 ft 2 kts 295°
2026-04-20 16:02 63.18330 75.26973 455 ft 1 kts 295°
2026-04-20 16:02 63.18345 75.26925 455 ft 7 kts 316°
2026-04-20 16:02 63.18391 75.26900 456 ft 6 kts 15°
2026-04-20 16:02 63.18433 75.26939 456 ft 10 kts 24°
2026-04-20 16:03 63.18523 75.27030 453 ft 16 kts 24°
2026-04-20 16:03 63.18615 75.27125 454 ft 14 kts 25°
2026-04-20 16:03 63.18699 75.27210 453 ft 12 kts 25°
2026-04-20 16:03 63.18768 75.27283 452 ft 15 kts 25°
2026-04-20 16:04 63.18871 75.27387 453 ft 17 kts 24°
2026-04-20 16:04 63.18974 75.27494 450 ft 17 kts 25°
2026-04-20 16:04 63.19076 75.27600 449 ft 16 kts 25°
2026-04-20 16:04 63.19172 75.27699 448 ft 14 kts 25°
2026-04-20 16:05 63.19251 75.27781 449 ft 11 kts 25°
2026-04-20 16:05 63.19311 75.27856 449 ft 7 kts 44°
2026-04-20 16:05 63.19340 75.27926 451 ft 6 kts 47°
2026-04-20 16:05 63.19363 75.27940 450 ft 0 kts 316°
2026-04-20 16:06 63.19365 75.27922 451 ft 1 kts 275°
2026-04-20 16:06 63.19358 75.27906 451 ft 4 kts 223°
2026-04-20 16:06 63.19230 75.27764 449 ft 52 kts 205°
2026-04-20 16:06 63.18637 75.27151 454 ft 133 kts 205°
2026-04-20 16:07 63.17583 75.26065 500 ft 197 kts 205°
2026-04-20 16:07 63.16278 75.24564 1132 ft 223 kts 213°
2026-04-20 16:07 63.15046 75.22389 1410 ft 229 kts 227°
2026-04-20 16:07 63.14334 75.19328 1425 ft 225 kts 259°
2026-04-20 16:08 63.13750 75.16070 1477 ft 239 kts 229°
2026-04-20 16:08 63.12328 75.13989 2046 ft 251 kts 205°
2026-04-20 16:08 63.10730 75.12418 2989 ft 250 kts 204°
2026-04-20 16:08 63.09189 75.10717 3953 ft 246 kts 210°
2026-04-20 16:09 63.07761 75.08625 4791 ft 247 kts 218°
2026-04-20 16:09 63.06464 75.06148 5601 ft 246 kts 224°
2026-04-20 16:09 63.05246 75.03516 6420 ft 244 kts 225°
2026-04-20 16:09 63.04015 75.00999 7210 ft 241 kts 221°
2026-04-20 16:10 63.02677 74.98753 7810 ft 248 kts 213°
2026-04-20 16:10 63.01135 74.96676 8156 ft 267 kts 212°
2026-04-20 16:10 62.99536 74.94507 8852 ft 272 kts 213°
2026-04-20 16:10 62.97946 74.92230 9665 ft 274 kts 214°
2026-04-20 16:11 62.96372 74.89858 10478 ft 274 kts 216°
2026-04-20 16:11 62.95336 74.88217 10797 ft 283 kts 217°
2026-04-20 16:11 62.93699 74.85524 10979 ft 304 kts 218°
2026-04-20 16:11 62.91950 74.82649 11215 ft 322 kts 218°
2026-04-20 16:12 62.90123 74.79726 11803 ft 327 kts 217°
2026-04-20 16:12 62.88278 74.76794 12574 ft 327 kts 218°
2026-04-20 16:12 62.86456 74.73850 13377 ft 325 kts 218°
2026-04-20 16:12 62.84701 74.70758 14140 ft 323 kts 227°
2026-04-20 16:13 62.83455 74.66724 14796 ft 319 kts 249°
2026-04-20 16:13 62.82948 74.62057 15501 ft 313 kts 268°
2026-04-20 16:13 62.83176 74.57383 16163 ft 309 kts 291°
2026-04-20 16:13 62.84377 74.53573 16830 ft 307 kts 320°
2026-04-20 16:14 62.86298 74.51603 17490 ft 310 kts 349°
2026-04-20 16:14 62.88453 74.51993 18092 ft 318 kts 17°
2026-04-20 16:14 62.90277 74.54661 18682 ft 327 kts 46°
2026-04-20 16:14 62.91350 74.59069 19164 ft 335 kts 74°
2026-04-20 16:15 62.91385 74.64203 19532 ft 344 kts 103°
2026-04-20 16:15 62.90332 74.68905 19874 ft 347 kts 132°
2026-04-20 16:15 62.88425 74.72067 20206 ft 344 kts 162°
2026-04-20 16:15 62.86130 74.72927 20625 ft 332 kts 191°
2026-04-20 16:16 62.84004 74.71396 21033 ft 317 kts 220°
2026-04-20 16:16 62.82569 74.67972 21422 ft 302 kts 249°
2026-04-20 16:16 62.82154 74.63615 21818 ft 291 kts 279°
2026-04-20 16:16 62.82838 74.59538 22206 ft 288 kts 306°
2026-04-20 16:17 62.83913 74.55877 22604 ft 287 kts 288°
2026-04-20 16:17 62.84041 74.51538 22945 ft 292 kts 262°
2026-04-20 16:17 62.83878 74.47178 23335 ft 286 kts 283°
2026-04-20 16:17 62.84732 74.43339 23643 ft 285 kts 314°
2026-04-20 16:18 62.86435 74.41103 23950 ft 294 kts 343°
2026-04-20 16:18 62.88508 74.41154 24200 ft 309 kts 13°
2026-04-20 16:18 62.90381 74.43599 24459 ft 325 kts 42°
2026-04-20 16:18 62.91597 74.47864 24664 ft 339 kts 67°
2026-04-20 16:19 62.92309 74.52815 24905 ft 342 kts 73°
2026-04-20 16:19 62.92396 74.58079 25080 ft 351 kts 102°
2026-04-20 16:19 62.91387 74.62926 25276 ft 352 kts 132°
2026-04-20 16:19 62.89520 74.66251 25403 ft 345 kts 161°
2026-04-20 16:20 62.87268 74.67340 25513 ft 331 kts 191°
2026-04-20 16:20 62.85149 74.66029 25734 ft 309 kts 220°
2026-04-20 16:20 62.83708 74.62829 25909 ft 291 kts 250°
2026-04-20 16:20 62.83277 74.58676 26075 ft 279 kts 279°
2026-04-20 16:21 62.83946 74.54784 26240 ft 278 kts 309°
2026-04-20 16:21 62.85514 74.52306 26400 ft 288 kts 338°
2026-04-20 16:21 62.87551 74.52019 26539 ft 306 kts
2026-04-20 16:21 62.89505 74.54152 26694 ft 327 kts 37°
2026-04-20 16:22 62.90822 74.58300 26913 ft 341 kts 67°
2026-04-20 16:22 62.91154 74.63488 27019 ft 352 kts 96°
2026-04-20 16:22 62.90384 74.68570 27063 ft 355 kts 126°
2026-04-20 16:22 62.88680 74.72380 27081 ft 350 kts 156°
2026-04-20 16:23 62.86443 74.74032 27173 ft 333 kts 185°
2026-04-20 16:23 62.84169 74.73477 26830 ft 329 kts 211°
2026-04-20 16:23 62.82186 74.71222 27188 ft 313 kts 222°
2026-04-20 16:23 62.80809 74.68184 27606 ft 289 kts 248°
2026-04-20 16:24 62.80264 74.64018 27465 ft 292 kts 275°
2026-04-20 16:24 62.80822 74.59673 27158 ft 310 kts 302°
2026-04-20 16:24 62.82422 74.56294 26842 ft 338 kts 328°
2026-04-20 16:24 62.84756 74.54900 26858 ft 363 kts 354°
2026-04-20 16:25 62.87285 74.55900 26912 ft 390 kts 18°
2026-04-20 16:25 62.89720 74.58841 26992 ft 407 kts 26°
2026-04-20 16:25 62.92267 74.61509 27043 ft 405 kts
2026-04-20 16:25 62.95042 74.61774 27122 ft 399 kts 345°
2026-04-20 16:26 62.97605 74.59608 27183 ft 397 kts 323°
2026-04-20 16:26 62.99563 74.55358 27235 ft 399 kts 301°
2026-04-20 16:26 63.00594 74.49677 27342 ft 406 kts 279°
2026-04-20 16:26 63.00695 74.43466 27727 ft 407 kts 272°
2026-04-20 16:27 63.00812 74.37267 28213 ft 403 kts 276°
2026-04-20 16:27 63.01095 74.31148 28656 ft 402 kts 279°
2026-04-20 16:27 63.01297 74.25029 29002 ft 404 kts 266°
2026-04-20 16:27 63.00554 74.19026 29369 ft 410 kts 253°
2026-04-20 16:28 62.99869 74.13023 29630 ft 405 kts 269°
2026-04-20 16:28 62.99930 74.06818 29739 ft 408 kts 276°
2026-04-20 16:28 63.00172 74.00550 29849 ft 413 kts 277°
2026-04-20 16:28 63.00421 73.94208 30043 ft 416 kts 276°
2026-04-20 16:29 63.00634 73.87851 30384 ft 416 kts 275°
2026-04-20 16:29 63.00799 73.81592 30724 ft 414 kts 275°
2026-04-20 16:29 63.00930 73.75256 31026 ft 414 kts 274°
2026-04-20 16:29 63.01036 73.68915 31267 ft 414 kts 274°
2026-04-20 16:30 63.01125 73.62579 31508 ft 415 kts 274°
2026-04-20 16:30 63.01203 73.56232 31797 ft 414 kts 274°
2026-04-20 16:30 63.01275 73.49905 32077 ft 413 kts 274°
2026-04-20 16:30 63.01343 73.43578 32320 ft 413 kts 273°
2026-04-20 16:31 63.01408 73.37261 32565 ft 414 kts 273°
2026-04-20 16:31 63.01471 73.30930 32819 ft 413 kts 273°
2026-04-20 16:31 63.01531 73.24599 33045 ft 413 kts 273°
2026-04-20 16:31 63.01585 73.18309 33366 ft 411 kts 273°
2026-04-20 16:32 63.01632 73.12010 33623 ft 410 kts 273°
2026-04-20 16:32 63.01682 73.05719 33812 ft 411 kts 273°
2026-04-20 16:32 63.01734 72.99422 34021 ft 412 kts 273°
2026-04-20 16:32 63.01785 72.93120 34284 ft 411 kts 273°
2026-04-20 16:33 63.01832 72.86824 34432 ft 413 kts 273°
2026-04-20 16:33 63.01877 72.80462 34464 ft 417 kts 273°
2026-04-20 16:33 63.01917 72.74092 34629 ft 417 kts 273°
2026-04-20 16:33 63.01954 72.67709 34870 ft 415 kts 273°
2026-04-20 16:34 63.01987 72.61341 35058 ft 415 kts 273°
2026-04-20 16:34 63.02017 72.54976 35187 ft 416 kts 273°
2026-04-20 16:34 63.02045 72.48599 35327 ft 417 kts 273°
2026-04-20 16:34 63.02070 72.42207 35447 ft 417 kts 273°
2026-04-20 16:35 63.02091 72.35834 35635 ft 416 kts 273°
2026-04-20 16:35 63.02110 72.29451 35775 ft 417 kts 273°
2026-04-20 16:35 63.02126 72.23056 35904 ft 418 kts 273°
2026-04-20 16:35 63.02139 72.16660 36061 ft 418 kts 272°
2026-04-20 16:36 63.02149 72.10347 36218 ft 417 kts 272°
2026-04-20 16:36 63.02157 72.03867 36299 ft 419 kts 272°
2026-04-20 16:36 63.02163 71.91002 36301 ft 420 kts 272°
2026-04-20 16:37 63.02157 71.78252 36308 ft 418 kts 272°
2026-04-20 16:37 63.02139 71.65494 36272 ft 416 kts 272°
2026-04-20 16:38 63.02111 71.52804 36296 ft 414 kts 272°
2026-04-20 16:38 63.02072 71.40166 36311 ft 412 kts 272°
2026-04-20 16:39 63.02021 71.27539 36311 ft 413 kts 272°
2026-04-20 16:39 63.01960 71.14882 36311 ft 413 kts 272°
2026-04-20 16:40 63.01886 71.02205 36312 ft 415 kts 272°
2026-04-20 16:40 63.01802 70.89490 36311 ft 416 kts 272°
2026-04-20 16:41 63.01705 70.76756 36299 ft 417 kts 271°
2026-04-20 16:41 63.01596 70.63972 36306 ft 417 kts 271°
2026-04-20 16:42 63.01476 70.51170 36316 ft 419 kts 271°
2026-04-20 16:42 63.01344 70.38330 36330 ft 420 kts 271°
2026-04-20 16:43 63.01199 70.25433 36323 ft 422 kts 271°
2026-04-20 16:43 63.01043 70.12526 36321 ft 422 kts 271°
2026-04-20 16:44 63.00875 69.99682 36321 ft 422 kts 271°
2026-04-20 16:44 63.00695 69.86775 36325 ft 422 kts 271°
2026-04-20 16:45 63.00503 69.73873 36327 ft 422 kts 271°
2026-04-20 16:45 63.00300 69.60960 36325 ft 422 kts 270°
2026-04-20 16:46 63.00085 69.48075 36331 ft 421 kts 270°
2026-04-20 16:46 62.99858 69.35209 36326 ft 421 kts 270°
2026-04-20 16:47 62.99620 69.22365 36326 ft 419 kts 270°
2026-04-20 16:47 62.99372 69.09552 36325 ft 419 kts 270°
2026-04-20 16:48 62.99112 68.96760 36330 ft 418 kts 270°
2026-04-20 16:48 62.98840 68.83980 36324 ft 418 kts 270°
2026-04-20 16:49 62.98558 68.71214 36318 ft 418 kts 270°
2026-04-20 16:49 62.98264 68.58439 36327 ft 418 kts 270°
2026-04-20 16:50 62.97958 68.45668 36316 ft 417 kts 269°
2026-04-20 16:50 62.97643 68.32996 36320 ft 418 kts 269°
2026-04-20 16:51 62.97314 68.20223 36314 ft 418 kts 269°
2026-04-20 16:51 62.96974 68.07459 36336 ft 418 kts 269°
2026-04-20 16:52 62.96621 67.94659 36328 ft 420 kts 269°
2026-04-20 16:52 62.96256 67.81829 36320 ft 421 kts 269°
2026-04-20 16:53 62.95878 67.68979 36303 ft 421 kts 269°
2026-04-20 16:53 62.95488 67.56107 36312 ft 422 kts 269°
2026-04-20 16:54 62.95085 67.43229 36320 ft 423 kts 268°
2026-04-20 16:54 62.94673 67.30416 36319 ft 423 kts 268°
2026-04-20 16:55 62.94246 67.17508 36314 ft 424 kts 268°
2026-04-20 16:55 62.93808 67.04603 36313 ft 424 kts 268°
2026-04-20 16:56 62.93357 66.91710 36257 ft 423 kts 268°
2026-04-20 16:56 62.92896 66.78835 36296 ft 422 kts 268°
2026-04-20 16:57 62.92424 66.65997 36306 ft 422 kts 268°
2026-04-20 16:57 62.91940 66.53144 36315 ft 422 kts 268°
2026-04-20 16:58 62.91445 66.40310 36316 ft 422 kts 268°
2026-04-20 16:58 62.91023 66.29635 36317 ft 422 kts 268°
2026-04-20 16:59 62.90507 66.16804 36311 ft 423 kts 268°
2026-04-20 16:59 62.89977 66.03960 36315 ft 423 kts 267°
2026-04-20 17:00 62.89162 65.84706 36311 ft 423 kts 267°
2026-04-20 17:01 62.88603 65.71872 36308 ft 423 kts 267°
2026-04-20 17:01 62.88033 65.59036 36311 ft 423 kts 267°
2026-04-20 17:02 62.87453 65.46264 36313 ft 424 kts 267°
2026-04-20 17:02 62.86854 65.33321 36302 ft 424 kts 266°
2026-04-20 17:03 62.86250 65.20546 36309 ft 424 kts 266°
2026-04-20 17:03 62.85631 65.07679 36303 ft 425 kts 266°
2026-04-20 17:04 62.84999 64.94809 36301 ft 425 kts 266°
2026-04-20 17:04 62.84355 64.81938 36301 ft 426 kts 266°
2026-04-20 17:05 62.83698 64.69044 36314 ft 426 kts 266°
2026-04-20 17:05 62.83029 64.56146 36289 ft 426 kts 266°
2026-04-20 17:06 62.82349 64.43289 36294 ft 426 kts 265°
2026-04-20 17:06 62.81657 64.30427 36298 ft 425 kts 265°
2026-04-20 17:07 62.80955 64.17590 36302 ft 425 kts 265°
2026-04-20 17:07 62.80247 64.04857 36301 ft 425 kts 265°
2026-04-20 17:08 62.79521 63.92030 36304 ft 424 kts 265°
2026-04-20 17:08 62.78785 63.79243 36291 ft 424 kts 265°
2026-04-20 17:09 62.78041 63.66502 36302 ft 423 kts 265°
2026-04-20 17:09 62.77276 63.53757 36308 ft 422 kts 264°
2026-04-20 17:10 62.76488 63.41047 36310 ft 422 kts 264°
2026-04-20 17:10 62.75694 63.28442 36310 ft 422 kts 264°
2026-04-20 17:11 62.74894 63.15768 36306 ft 422 kts 264°
2026-04-20 17:11 62.74091 63.03101 36288 ft 421 kts 264°
2026-04-20 17:12 62.73271 62.90458 36296 ft 421 kts 264°
2026-04-20 17:12 62.72436 62.77847 36309 ft 420 kts 264°
2026-04-20 17:13 62.71648 62.65218 36304 ft 420 kts 264°
2026-04-20 17:13 62.70840 62.52596 36299 ft 420 kts 264°
2026-04-20 17:14 62.69998 62.39997 36306 ft 420 kts 264°
2026-04-20 17:14 62.69135 62.27413 36284 ft 420 kts 263°
2026-04-20 17:15 62.68259 62.14847 36299 ft 420 kts 263°
2026-04-20 17:15 62.67373 62.02305 36305 ft 419 kts 263°
2026-04-20 17:16 62.66476 61.89762 36304 ft 419 kts 263°
2026-04-20 17:16 62.65573 61.77303 36307 ft 419 kts 263°
2026-04-20 17:17 62.64654 61.64786 36301 ft 419 kts 263°
2026-04-20 17:17 62.63875 61.54292 36304 ft 420 kts 263°
2026-04-20 17:18 62.62706 61.38753 36290 ft 419 kts 262°
2026-04-20 17:18 62.61754 61.26275 36298 ft 418 kts 262°
2026-04-20 17:19 62.60791 61.13810 36298 ft 418 kts 262°
2026-04-20 17:19 62.59820 61.01383 36296 ft 418 kts 262°
2026-04-20 17:20 62.58836 60.88940 36304 ft 419 kts 262°
2026-04-20 17:20 62.57845 60.76556 36284 ft 419 kts 262°
2026-04-20 17:21 62.56829 60.64013 36291 ft 420 kts 262°
2026-04-20 17:21 62.55806 60.51529 36298 ft 421 kts 261°
2026-04-20 17:22 62.54777 60.39109 36294 ft 422 kts 261°
2026-04-20 17:22 62.53727 60.26589 36298 ft 422 kts 261°
2026-04-20 17:23 62.52665 60.14064 36303 ft 423 kts 261°
2026-04-20 17:23 62.51773 60.03648 36300 ft 423 kts 261°
2026-04-20 17:24 62.50690 59.91132 36293 ft 423 kts 261°
2026-04-20 17:24 62.49597 59.78641 36297 ft 422 kts 261°
2026-04-20 17:25 62.48496 59.66169 36295 ft 421 kts 261°
2026-04-20 17:25 62.47720 59.53663 36286 ft 419 kts 270°
2026-04-20 17:26 62.47743 59.41079 36283 ft 418 kts 271°
2026-04-20 17:26 62.47764 59.28509 36283 ft 418 kts 270°
2026-04-20 17:27 62.47752 59.15946 36270 ft 418 kts 270°
2026-04-20 17:27 62.47717 59.03379 36281 ft 417 kts 270°
2026-04-20 17:28 62.47668 58.90822 36286 ft 418 kts 270°
2026-04-20 17:28 62.47606 58.78234 36290 ft 419 kts 270°
2026-04-20 17:29 62.47533 58.65687 36290 ft 421 kts 270°
2026-04-20 17:29 62.47449 58.53009 36279 ft 422 kts 270°
2026-04-20 17:30 62.47353 58.40286 36277 ft 424 kts 270°
2026-04-20 17:30 62.47245 58.27529 36282 ft 425 kts 269°
2026-04-20 17:31 62.47125 58.14758 36275 ft 426 kts 269°
2026-04-20 17:31 62.46993 58.01962 36276 ft 426 kts 269°
2026-04-20 17:32 62.46849 57.89164 36274 ft 426 kts 269°
2026-04-20 17:32 62.46694 57.76379 36264 ft 425 kts 269°
2026-04-20 17:33 62.46527 57.63599 36268 ft 425 kts 269°
2026-04-20 17:33 62.46344 57.50856 36247 ft 424 kts 269°
2026-04-20 17:34 62.46136 57.38122 36260 ft 424 kts 268°
2026-04-20 17:34 62.45914 57.25400 36263 ft 424 kts 268°
2026-04-20 17:35 62.45696 57.12646 36260 ft 425 kts 269°
2026-04-20 17:35 62.45501 56.99958 36260 ft 425 kts 269°
2026-04-20 17:36 62.45281 56.87182 36264 ft 426 kts 268°
2026-04-20 17:36 62.45035 56.74369 36258 ft 427 kts 268°
2026-04-20 17:37 62.44946 56.70038 36255 ft 427 kts 268°
2026-04-20 17:37 62.44429 56.47211 36251 ft 428 kts 268°
2026-04-20 17:38 62.44129 56.34359 36256 ft 429 kts 268°
2026-04-20 17:38 62.43880 56.23654 36253 ft 429 kts 268°
2026-04-20 17:39 62.43598 56.10783 36262 ft 429 kts 268°
2026-04-20 17:39 62.43296 55.97864 36252 ft 430 kts 268°
2026-04-20 17:40 62.42969 55.85004 36251 ft 431 kts 267°
2026-04-20 17:40 62.42622 55.72081 36244 ft 431 kts 267°
2026-04-20 17:41 62.42262 55.59136 36252 ft 432 kts 267°
2026-04-20 17:41 62.41892 55.46273 36248 ft 432 kts 267°
2026-04-20 17:42 62.41509 55.33321 36250 ft 433 kts 267°
2026-04-20 17:42 62.41113 55.20316 36250 ft 433 kts 266°
2026-04-20 17:43 62.40713 55.07441 36241 ft 433 kts 267°
2026-04-20 17:43 62.40317 54.94484 36228 ft 433 kts 266°
2026-04-20 17:44 62.39911 54.81520 36242 ft 432 kts 266°
2026-04-20 17:44 62.39493 54.68596 36244 ft 432 kts 266°
2026-04-20 17:45 62.39060 54.55658 36253 ft 433 kts 266°
2026-04-20 17:45 62.38615 54.42715 36247 ft 433 kts 266°
2026-04-20 17:46 62.38160 54.29822 36243 ft 434 kts 266°
2026-04-20 17:46 62.37689 54.16823 36245 ft 435 kts 266°
2026-04-20 17:47 62.37205 54.03789 36235 ft 436 kts 266°
2026-04-20 17:47 62.36709 53.90738 36241 ft 437 kts 266°
2026-04-20 17:48 62.36197 53.77687 36234 ft 437 kts 265°
2026-04-20 17:48 62.35673 53.64621 36235 ft 438 kts 265°
2026-04-20 17:49 62.35142 53.51633 36240 ft 438 kts 265°
2026-04-20 17:49 62.34599 53.38551 36235 ft 438 kts 265°
2026-04-20 17:50 62.34061 53.25478 36232 ft 438 kts 265°
2026-04-20 17:50 62.33514 53.12420 36236 ft 438 kts 265°
2026-04-20 17:51 62.32952 52.99353 36231 ft 438 kts 265°
2026-04-20 17:51 62.32377 52.86308 36236 ft 439 kts 265°
2026-04-20 17:52 62.31787 52.73213 36224 ft 439 kts 265°
2026-04-20 17:52 62.31186 52.60150 36224 ft 440 kts 265°
2026-04-20 17:53 62.30575 52.47139 36222 ft 440 kts 265°
2026-04-20 17:53 62.29948 52.34040 36208 ft 440 kts 264°
2026-04-20 17:54 62.29308 52.20959 36215 ft 440 kts 264°
2026-04-20 17:54 62.28655 52.07855 36207 ft 441 kts 264°
2026-04-20 17:55 62.27990 51.94761 36207 ft 441 kts 264°
2026-04-20 17:55 62.27313 51.81672 36205 ft 441 kts 264°
2026-04-20 17:56 62.26622 51.68577 36205 ft 441 kts 264°
2026-04-20 17:56 62.25919 51.55472 36191 ft 442 kts 264°
2026-04-20 17:57 62.25201 51.42350 36188 ft 443 kts 264°
2026-04-20 17:57 62.24471 51.29214 36197 ft 444 kts 264°
2026-04-20 17:58 62.23726 51.16056 36196 ft 445 kts 264°
2026-04-20 17:58 62.22972 51.02958 36187 ft 445 kts 264°
2026-04-20 17:59 62.22199 50.89772 36191 ft 446 kts 263°
2026-04-20 17:59 62.21414 50.76580 36186 ft 446 kts 263°
2026-04-20 18:00 62.20617 50.63384 36195 ft 446 kts 263°
2026-04-20 18:00 62.19809 50.50214 36202 ft 446 kts 263°
2026-04-20 18:01 62.19004 50.37047 36194 ft 446 kts 263°
2026-04-20 18:01 62.18187 50.23863 36203 ft 446 kts 263°
2026-04-20 18:02 62.17357 50.10682 36199 ft 447 kts 263°
2026-04-20 18:02 62.16517 49.97579 36196 ft 448 kts 263°
2026-04-20 18:03 62.15658 49.84378 36199 ft 448 kts 263°
2026-04-20 18:03 62.14785 49.71158 36198 ft 449 kts 263°
2026-04-20 18:04 62.13899 49.57944 36201 ft 449 kts 263°
2026-04-20 18:04 62.12999 49.44724 36207 ft 450 kts 263°
2026-04-20 18:05 62.11625 49.24884 36203 ft 450 kts 262°
2026-04-20 18:05 62.10692 49.11669 36202 ft 450 kts 262°
2026-04-20 18:06 62.09635 48.98503 36194 ft 450 kts 261°
2026-04-20 18:06 62.08515 48.85361 36207 ft 450 kts 261°
2026-04-20 18:07 62.07391 48.72205 36201 ft 451 kts 261°
2026-04-20 18:07 62.06263 48.59022 36208 ft 452 kts 261°
2026-04-20 18:08 62.05132 48.45919 36201 ft 453 kts 261°
2026-04-20 18:08 62.03980 48.32721 36200 ft 453 kts 261°
2026-04-20 18:09 62.02813 48.19515 36196 ft 454 kts 260°
2026-04-20 18:09 62.01632 48.06301 36204 ft 454 kts 260°
2026-04-20 18:10 62.00438 47.93105 36217 ft 454 kts 260°
2026-04-20 18:10 61.99231 47.79903 36211 ft 454 kts 260°
2026-04-20 18:11 61.98010 47.66706 36205 ft 454 kts 260°
2026-04-20 18:11 61.96779 47.53542 36211 ft 454 kts 260°
2026-04-20 18:12 61.95535 47.40380 36201 ft 454 kts 259°
2026-04-20 18:12 61.94282 47.27259 36207 ft 453 kts 259°
2026-04-20 18:13 61.93016 47.14133 36206 ft 453 kts 259°
2026-04-20 18:13 61.91749 47.01028 36206 ft 453 kts 259°
2026-04-20 18:14 61.90467 46.87926 36204 ft 453 kts 259°
2026-04-20 18:14 61.89101 46.74882 36207 ft 453 kts 258°
2026-04-20 18:15 61.87697 46.61872 36208 ft 453 kts 258°
2026-04-20 18:15 61.86286 46.48843 36202 ft 453 kts 258°
2026-04-20 18:16 61.84871 46.35850 36202 ft 453 kts 258°
2026-04-20 18:16 61.83456 46.22949 36199 ft 453 kts 258°
2026-04-20 18:17 61.82017 46.09964 36202 ft 454 kts 258°
2026-04-20 18:17 61.80563 45.96957 36205 ft 455 kts 258°
2026-04-20 18:18 61.79092 45.83931 36194 ft 456 kts 258°
2026-04-20 18:18 61.77604 45.70871 36203 ft 458 kts 258°
2026-04-20 18:19 61.76100 45.57798 36205 ft 459 kts 257°
2026-04-20 18:19 61.74577 45.44679 36199 ft 460 kts 257°
2026-04-20 18:20 61.73040 45.31557 36200 ft 461 kts 257°
2026-04-20 18:20 61.71489 45.18429 36195 ft 461 kts 257°
2026-04-20 18:21 61.69980 45.05287 36192 ft 461 kts 262°
2026-04-20 18:21 61.69260 44.91917 36193 ft 459 kts 266°
2026-04-20 18:22 61.68720 44.78524 36183 ft 459 kts 266°
2026-04-20 18:22 61.68133 44.65150 36195 ft 458 kts 266°
2026-04-20 18:23 61.67491 44.51786 36201 ft 459 kts 265°
2026-04-20 18:23 61.66820 44.38424 36198 ft 459 kts 265°
2026-04-20 18:24 61.66135 44.25060 36200 ft 459 kts 265°
2026-04-20 18:24 61.65437 44.11695 36196 ft 460 kts 265°
2026-04-20 18:25 61.64732 43.98403 36204 ft 460 kts 265°
2026-04-20 18:25 61.64008 43.85021 36202 ft 461 kts 265°
2026-04-20 18:26 61.63390 43.73790 36187 ft 462 kts 265°
2026-04-20 18:26 61.62640 43.60381 36199 ft 462 kts 265°
2026-04-20 18:27 61.61881 43.47037 36202 ft 463 kts 265°
2026-04-20 18:27 61.61102 43.33595 36199 ft 464 kts 265°
2026-04-20 18:28 61.60308 43.20120 36196 ft 465 kts 265°
2026-04-20 18:28 61.59499 43.06642 36200 ft 465 kts 264°
2026-04-20 18:29 61.58677 42.93149 36199 ft 466 kts 264°
2026-04-20 18:29 61.57840 42.79649 36204 ft 466 kts 264°
2026-04-20 18:30 61.56988 42.66144 36204 ft 467 kts 264°
2026-04-20 18:30 61.56123 42.52649 36195 ft 466 kts 265°
2026-04-20 18:31 61.55249 42.39176 36206 ft 466 kts 264°
2026-04-20 18:31 61.54365 42.25714 36200 ft 466 kts 264°
2026-04-20 18:32 61.53494 42.12334 36205 ft 466 kts 264°
2026-04-20 18:32 61.52602 41.98787 36204 ft 466 kts 264°
2026-04-20 18:33 61.51707 41.85426 36206 ft 466 kts 264°
2026-04-20 18:33 61.50791 41.71991 36208 ft 466 kts 264°
2026-04-20 18:34 61.49860 41.58545 36209 ft 466 kts 264°
2026-04-20 18:34 61.48916 41.45121 36202 ft 466 kts 264°
2026-04-20 18:35 61.47961 41.31714 36205 ft 466 kts 264°
2026-04-20 18:35 61.46990 41.18289 36210 ft 466 kts 264°
2026-04-20 18:36 61.46007 41.04882 36216 ft 466 kts 264°
2026-04-20 18:36 61.45010 40.91467 36210 ft 467 kts 264°
2026-04-20 18:37 61.43999 40.78063 36209 ft 467 kts 264°
2026-04-20 18:37 61.42976 40.64674 36213 ft 467 kts 263°
2026-04-20 18:38 61.41938 40.51277 36208 ft 467 kts 263°
2026-04-20 18:38 61.40894 40.37975 36199 ft 467 kts 263°
2026-04-20 18:39 61.39830 40.24587 36206 ft 467 kts 263°
2026-04-20 18:39 61.38752 40.11209 36214 ft 468 kts 263°
2026-04-20 18:40 61.37661 39.97834 36217 ft 468 kts 263°
2026-04-20 18:40 61.36555 39.84457 36220 ft 468 kts 263°
2026-04-20 18:41 61.35435 39.71071 36220 ft 469 kts 263°
2026-04-20 18:41 61.34300 39.57666 36216 ft 469 kts 263°
2026-04-20 18:42 61.33151 39.44275 36214 ft 470 kts 263°
2026-04-20 18:42 61.31989 39.30887 36194 ft 470 kts 263°
2026-04-20 18:43 61.30813 39.17508 36204 ft 470 kts 263°
2026-04-20 18:43 61.29634 39.04222 36211 ft 470 kts 262°
2026-04-20 18:44 61.28425 38.90771 36206 ft 470 kts 262°
2026-04-20 18:44 61.27219 38.77494 36206 ft 470 kts 262°
2026-04-20 18:45 61.25993 38.64142 36211 ft 471 kts 262°
2026-04-20 18:45 61.24754 38.50777 36207 ft 471 kts 262°
2026-04-20 18:46 61.23113 38.37597 36207 ft 475 kts 249°
2026-04-20 18:46 61.20295 38.25175 36217 ft 476 kts 246°
2026-04-20 18:47 61.17394 38.12811 36192 ft 476 kts 246°
2026-04-20 18:47 61.14528 38.00433 36201 ft 477 kts 247°
2026-04-20 18:48 61.11679 37.88049 36210 ft 477 kts 247°
2026-04-20 18:48 61.08821 37.75666 36212 ft 477 kts 246°
2026-04-20 18:49 61.05945 37.63288 36214 ft 478 kts 246°
2026-04-20 18:49 61.03075 37.51009 36208 ft 479 kts 246°
2026-04-20 18:50 61.00169 37.38653 36204 ft 479 kts 246°
2026-04-20 18:50 60.97251 37.26313 36208 ft 479 kts 246°
2026-04-20 18:51 60.94321 37.13992 36217 ft 479 kts 246°
2026-04-20 18:51 60.91379 37.01691 36217 ft 479 kts 246°
2026-04-20 18:52 60.88421 36.89396 36215 ft 479 kts 246°
2026-04-20 18:52 60.85459 36.77143 36217 ft 479 kts 245°
2026-04-20 18:53 60.82488 36.64915 36218 ft 479 kts 245°
2026-04-20 18:53 60.79548 36.52790 36227 ft 478 kts 246°
2026-04-20 18:54 60.76579 36.40590 36230 ft 479 kts 245°
2026-04-20 18:54 60.73597 36.28411 36232 ft 479 kts 245°
2026-04-20 18:55 60.70599 36.16240 36176 ft 481 kts 245°
2026-04-20 18:55 60.69087 36.10127 36019 ft 483 kts 245°
2026-04-20 18:55 60.67570 36.04017 35949 ft 482 kts 245°
2026-04-20 18:56 60.64536 35.91841 35979 ft 483 kts 245°
2026-04-20 18:56 60.63008 35.85734 36112 ft 484 kts 245°
2026-04-20 18:56 60.61474 35.79620 36229 ft 485 kts 245°
2026-04-20 18:57 60.58404 35.67434 36223 ft 482 kts 245°
2026-04-20 18:57 60.55337 35.55330 36219 ft 480 kts 245°
2026-04-20 18:58 60.52275 35.43307 36231 ft 478 kts 244°
2026-04-20 18:58 60.49239 35.31447 36229 ft 476 kts 244°
2026-04-20 18:59 60.46173 35.19530 36233 ft 477 kts 244°
2026-04-20 18:59 60.43867 35.07038 36242 ft 474 kts 259°
2026-04-20 19:00 60.42298 34.93975 36240 ft 481 kts 259°
2026-04-20 19:00 60.40700 34.80805 36107 ft 482 kts 259°
2026-04-20 19:01 60.39878 34.74223 35844 ft 481 kts 258°
2026-04-20 19:01 60.39049 34.67687 35599 ft 481 kts 258°
2026-04-20 19:01 60.38209 34.61136 35359 ft 482 kts 258°
2026-04-20 19:01 60.37362 34.54563 35137 ft 484 kts 258°
2026-04-20 19:02 60.36508 34.47965 34904 ft 485 kts 258°
2026-04-20 19:02 60.35650 34.41367 34673 ft 486 kts 259°
2026-04-20 19:02 60.34786 34.34747 34440 ft 487 kts 259°
2026-04-20 19:02 60.33921 34.28148 34208 ft 488 kts 259°
2026-04-20 19:03 60.33049 34.21518 33933 ft 488 kts 259°
2026-04-20 19:03 60.32175 34.14900 33614 ft 489 kts 259°
2026-04-20 19:03 60.31295 34.08269 33338 ft 490 kts 259°
2026-04-20 19:03 60.30410 34.01623 33065 ft 490 kts 259°
2026-04-20 19:04 60.29521 33.94982 32802 ft 491 kts 259°
2026-04-20 19:04 60.28640 33.88423 32545 ft 492 kts 259°
2026-04-20 19:04 60.27742 33.81768 32280 ft 493 kts 259°
2026-04-20 19:04 60.26839 33.75101 32022 ft 494 kts 258°
2026-04-20 19:05 60.25929 33.68415 31724 ft 496 kts 258°
2026-04-20 19:05 60.25013 33.61704 31337 ft 499 kts 258°
2026-04-20 19:05 60.24084 33.54939 30956 ft 502 kts 258°
2026-04-20 19:05 60.23148 33.48148 30593 ft 505 kts 258°
2026-04-20 19:06 60.22205 33.41343 30264 ft 504 kts 258°
2026-04-20 19:06 60.21263 33.34580 30246 ft 500 kts 258°
2026-04-20 19:06 60.19376 33.21077 30237 ft 504 kts 258°
2026-04-20 19:07 60.17461 33.07499 30173 ft 506 kts 258°
2026-04-20 19:07 60.16494 33.00690 29695 ft 507 kts 258°
2026-04-20 19:07 60.15530 32.93948 29275 ft 498 kts 258°
2026-04-20 19:08 60.14577 32.87320 28835 ft 489 kts 258°
2026-04-20 19:08 60.12717 32.74450 28265 ft 468 kts 258°
2026-04-20 19:08 60.11818 32.68254 27999 ft 459 kts 258°
2026-04-20 19:09 60.10932 32.62161 27718 ft 450 kts 258°
2026-04-20 19:09 60.10061 32.56194 27453 ft 442 kts 258°
2026-04-20 19:09 60.09204 32.50335 27203 ft 434 kts 258°
2026-04-20 19:09 60.08359 32.44575 26928 ft 428 kts 258°
2026-04-20 19:10 60.07521 32.38886 26542 ft 425 kts 258°
2026-04-20 19:10 60.06686 32.33236 26258 ft 423 kts 258°
2026-04-20 19:10 60.06037 32.27600 26234 ft 407 kts 268°
2026-04-20 19:10 60.05838 32.22059 25980 ft 394 kts 273°
2026-04-20 19:11 60.05736 32.16613 25435 ft 390 kts 274°
2026-04-20 19:11 60.05646 32.11292 24978 ft 384 kts 274°
2026-04-20 19:11 60.05550 32.05979 24516 ft 380 kts 274°
2026-04-20 19:11 60.05445 32.00727 24059 ft 375 kts 273°
2026-04-20 19:12 60.05332 31.95539 23568 ft 371 kts 273°
2026-04-20 19:12 60.05214 31.90412 23035 ft 367 kts 273°
2026-04-20 19:12 60.05092 31.85311 22376 ft 367 kts 272°
2026-04-20 19:12 60.04969 31.80214 21727 ft 367 kts 272°
2026-04-20 19:13 60.04843 31.75117 21076 ft 367 kts 272°
2026-04-20 19:13 60.04713 31.70009 20437 ft 367 kts 272°
2026-04-20 19:13 60.04626 31.66622 20022 ft 367 kts 272°
2026-04-20 19:13 60.04492 31.61556 19569 ft 361 kts 272°
2026-04-20 19:14 60.04359 31.56602 19267 ft 351 kts 272°
2026-04-20 19:14 60.04228 31.51789 19009 ft 340 kts 272°
2026-04-20 19:14 60.04102 31.47131 18745 ft 331 kts 272°
2026-04-20 19:14 60.03977 31.42593 18481 ft 322 kts 272°
2026-04-20 19:15 60.03854 31.38185 18190 ft 313 kts 272°
2026-04-20 19:15 60.03655 31.33883 17859 ft 308 kts 265°
2026-04-20 19:15 60.03264 31.29713 17570 ft 301 kts 262°
2026-04-20 19:15 60.02826 31.25654 17223 ft 297 kts 262°
2026-04-20 19:16 60.02382 31.21604 16696 ft 300 kts 262°
2026-04-20 19:16 60.01940 31.17524 16250 ft 300 kts 262°
2026-04-20 19:16 60.01509 31.13496 15773 ft 301 kts 262°
2026-04-20 19:16 60.01073 31.09392 15277 ft 303 kts 262°
2026-04-20 19:17 60.00638 31.05267 14792 ft 304 kts 262°
2026-04-20 19:17 60.00201 31.01115 14311 ft 306 kts 262°
2026-04-20 19:17 59.99762 30.96950 13803 ft 307 kts 262°
2026-04-20 19:17 59.99320 30.92765 13267 ft 308 kts 262°
2026-04-20 19:18 59.98877 30.88576 12741 ft 309 kts 262°
2026-04-20 19:18 59.98431 30.84378 12317 ft 305 kts 262°
2026-04-20 19:18 59.97995 30.80306 12070 ft 296 kts 262°
2026-04-20 19:18 59.97571 30.76336 11790 ft 288 kts 262°
2026-04-20 19:19 59.97157 30.72449 11393 ft 287 kts 262°
2026-04-20 19:19 59.96737 30.68523 10866 ft 290 kts 261°
2026-04-20 19:19 59.96312 30.64568 10349 ft 293 kts 261°
2026-04-20 19:19 59.95885 30.60571 9813 ft 295 kts 263°
2026-04-20 19:20 59.95942 30.56590 9209 ft 285 kts 294°
2026-04-20 19:20 59.96864 30.53204 8687 ft 274 kts 315°
2026-04-20 19:20 59.97916 30.50006 8102 ft 282 kts 297°
2026-04-20 19:20 59.98534 30.46275 7760 ft 279 kts 292°
2026-04-20 19:21 59.99095 30.42686 7494 ft 270 kts 293°
2026-04-20 19:21 59.99658 30.39163 7213 ft 263 kts 294°
2026-04-20 19:21 60.00220 30.35706 6827 ft 261 kts 294°
2026-04-20 19:21 60.00787 30.32266 6406 ft 260 kts 294°
2026-04-20 19:22 60.01347 30.28880 6027 ft 253 kts 294°
2026-04-20 19:22 60.01882 30.25637 5900 ft 236 kts 295°
2026-04-20 19:22 60.02382 30.22598 5888 ft 225 kts 295°
2026-04-20 19:22 60.02857 30.19719 5880 ft 212 kts 295°
2026-04-20 19:23 60.03308 30.16981 5888 ft 205 kts 294°
2026-04-20 19:23 60.03580 30.14159 5914 ft 208 kts 284°
2026-04-20 19:23 60.03763 30.11254 5882 ft 212 kts 283°
2026-04-20 19:23 60.03951 30.08290 5651 ft 216 kts 284°
2026-04-20 19:24 60.04144 30.05335 5422 ft 212 kts 284°
2026-04-20 19:24 60.04338 30.02440 5194 ft 208 kts 285°
2026-04-20 19:24 60.04531 29.99595 4967 ft 204 kts 284°
2026-04-20 19:24 60.04722 29.96782 4753 ft 203 kts 284°
2026-04-20 19:25 60.04902 29.94010 4641 ft 200 kts 284°
2026-04-20 19:25 60.05053 29.91220 4570 ft 206 kts 274°
2026-04-20 19:25 60.04709 29.88395 4518 ft 215 kts 259°
2026-04-20 19:25 60.04621 29.85462 4445 ft 210 kts 281°
2026-04-20 19:26 60.04637 29.82534 4377 ft 212 kts 274°
2026-04-20 19:26 60.04568 29.79549 4429 ft 219 kts 273°
2026-04-20 19:26 60.04303 29.76494 4342 ft 231 kts 248°
2026-04-20 19:26 60.03195 29.74262 4057 ft 223 kts 200°
2026-04-20 19:27 60.01756 29.74017 3806 ft 200 kts 163°
2026-04-20 19:27 60.00362 29.73931 3542 ft 205 kts 192°
2026-04-20 19:27 59.99015 29.73051 3283 ft 203 kts 195°
2026-04-20 19:27 59.97667 29.72559 2975 ft 191 kts 161°
2026-04-20 19:28 59.96643 29.73823 2772 ft 167 kts 123°
2026-04-20 19:28 59.95859 29.75441 2567 ft 156 kts 125°
2026-04-20 19:28 59.95112 29.76933 2508 ft 149 kts 126°
2026-04-20 19:28 59.94379 29.78379 2495 ft 148 kts 127°
2026-04-20 19:29 59.93637 29.79827 2504 ft 150 kts 127°
2026-04-20 19:29 59.92888 29.81271 2503 ft 150 kts 127°
2026-04-20 19:29 59.92142 29.82692 2489 ft 150 kts 128°
2026-04-20 19:29 59.91375 29.84139 2489 ft 150 kts 128°
2026-04-20 19:30 59.90626 29.85542 2490 ft 150 kts 128°
2026-04-20 19:30 59.89866 29.86957 2492 ft 149 kts 127°
2026-04-20 19:30 59.89102 29.88372 2492 ft 150 kts 128°
2026-04-20 19:30 59.88338 29.89783 2486 ft 150 kts 128°
2026-04-20 19:31 59.87575 29.91190 2483 ft 149 kts 128°
2026-04-20 19:31 59.86819 29.92579 2485 ft 148 kts 128°
2026-04-20 19:31 59.86063 29.93967 2492 ft 148 kts 128°
2026-04-20 19:31 59.85378 29.95457 2472 ft 143 kts 108°
2026-04-20 19:32 59.85097 29.97313 2414 ft 141 kts 101°
2026-04-20 19:32 59.84795 29.99169 2303 ft 140 kts 102°
2026-04-20 19:32 59.84493 30.01080 2253 ft 156 kts 102°
2026-04-20 19:32 59.84160 30.03251 2375 ft 162 kts 101°
2026-04-20 19:33 59.83853 30.05360 2171 ft 153 kts 101°
2026-04-20 19:33 59.83563 30.07315 1965 ft 141 kts 101°
2026-04-20 19:33 59.83288 30.09151 1802 ft 138 kts 102°
2026-04-20 19:33 59.83020 30.10931 1586 ft 129 kts 101°
2026-04-20 19:34 59.82772 30.12577 1402 ft 120 kts 102°
2026-04-20 19:34 59.82533 30.14170 1248 ft 120 kts 103°
2026-04-20 19:34 59.82294 30.15752 1083 ft 120 kts 103°
2026-04-20 19:34 59.82052 30.17369 901 ft 123 kts 103°
2026-04-20 19:35 59.81805 30.19017 732 ft 126 kts 104°
2026-04-20 19:35 59.81550 30.20708 572 ft 128 kts 104°
2026-04-20 19:35 59.81295 30.22411 374 ft 129 kts 104°
2026-04-20 19:35 59.81044 30.24093 216 ft 130 kts 106°
2026-04-20 19:36 59.80808 30.25726 82 ft 112 kts 104°
2026-04-20 19:36 59.80658 30.26630 67 ft 28 kts 138°
2026-04-20 19:36 59.80583 30.26625 64 ft 10 kts 197°
2026-04-20 19:36 59.80516 30.26583 72 ft 10 kts 197°
2026-04-20 19:37 59.80458 30.26533 66 ft 8 kts 218°
2026-04-20 19:37 59.80418 30.26470 65 ft 7 kts 219°
2026-04-20 19:37 59.80393 30.26450 67 ft 0 kts 198°
2026-04-20 19:37 59.80369 30.26435 69 ft 19 kts 198°
2026-04-20 19:38 59.80303 30.26394 72 ft 0 kts 199°
2026-04-20 19:38 59.80301 30.26393 70 ft 0 kts 197°
2026-04-20 19:38 59.80298 30.26391 69 ft 1 kts 197°
2026-04-20 19:38 59.80250 30.26338 68 ft 8 kts 209°
2026-04-20 19:39 59.80227 30.26258 72 ft 0 kts 288°
2026-04-20 19:39 59.80230 30.26242 70 ft 1 kts 291°
2026-04-20 19:39 59.80236 30.26211 67 ft 0 kts 290°
2026-04-20 19:39 59.80236 30.26210 67 ft 0 kts 290°